Location: Goettingen
(51.5300°N, 9.9433°E)
Time: 02:41:34
(UTC+01:00)

ISS - Pass Details

Date: 23 May 2017
Orbit: 402 x 406 km, 51.6° (Epoch: 16 December)

Event Time Altitude Azimuth Distance (km) Brightness Sun altitude
Exits shadow 01:21:56 - 260° (W) 1,569 -1.0 -17.9°
Reaches altitude 10° 01:22:06 10° 260° (W) 1,500 -1.1 -17.9°
Drops below altitude 10° 01:28:49 10° 83° (E) 1,491 -0.9 -17.8°
Enters shadow 02:48:18 -22° 278° (W) 5,744 1.9 -15.2°
Maximum altitude 03:02:10 80° 192° (SSW) 426 -3.9 -14.3°
